Location: Asheville, NC
(35.6000°N, 82.5500°W)
Time: 21:00:41
(UTC-04:00)

QB50P2 - Visible Passes

Search period start: 17 July 2018 00:00
Search period end: 27 July 2018 00:00
Orbit: 594 x 612 km, 97.9° (Epoch: 16 July)

Date Brightness Start Highest point End Pass type
(mag) Time Alt. Az. Time Alt. Az. Time Alt. Az.
17 Jul ? 01:56:15 10° N 01:58:01 24° N 01:58:01 24° N visible
18 Jul ? 02:08:30 10° N 02:10:12 22° NNW 02:10:12 22° NNW visible
19 Jul ? 00:45:33 10° NE 00:45:34 10° NE 00:45:34 10° NE visible
19 Jul ? 02:20:51 10° NNW 02:22:23 19° NNW 02:22:23 19° NNW visible
20 Jul ? 00:57:13 10° NE 00:57:44 13° NE 00:57:44 13° NE visible
20 Jul ? 02:33:19 10° NNW 02:34:33 15° NW 02:34:33 15° NW visible
21 Jul ? 01:09:02 10° NNE 01:09:55 15° NE 01:09:55 15° NE visible
21 Jul ? 02:45:59 10° NNW 02:46:44 12° NW 02:46:44 12° NW visible
22 Jul ? 01:20:57 10° NNE 01:22:05 18° NNE 01:22:05 18° NNE visible
23 Jul ? 01:32:58 10° NNE 01:34:16 20° NNE 01:34:16 20° NNE visible
24 Jul ? 01:45:03 10° N 01:46:26 20° N 01:46:26 20° N visible
25 Jul ? 01:57:13 10° N 01:58:36 20° N 01:58:36 20° N visible
26 Jul ? 02:09:28 10° N 02:10:46 18° NNW 02:10:46 18° NNW visible
